Regional Weather Roundup
Issued by NWS

Home | Current Version | Previous Version | Graphics & Text | Print | Product List | Glossary On
Versions: 1 2 3 4 5 6 7 8 9 10 11 12 13 14 15 16 17 18 19 20 21 22 23 24 25 26 27 28 29 30 31 32 33 34 35 36 37 38 39 40 41 42 43 44 45 46 47 48 49 50
000
ASUS43 KLOT 162208
RWRIL

ILLINOIS REGIONAL WEATHER ROUNDUP
NATIONAL WEATHER SERVICE CHICAGO/ROMEOVILLE IL
400 PM CST MON JAN 16 2017

NOTE: "FAIR" INDICATES FEW OR NO CLOUDS BELOW 12,000 FEET WITH NO
SIGNIFICANT WEATHER AND/OR OBSTRUCTIONS TO VISIBILITY.

* THESE STATIONS ARE NOT UNDER NWS QUALITY CONTROL. THEY ALSO MAY NOT
  REPORT WEATHER SUCH AS PRECIPITATION OR FOG.

ILZ001-002-007-009-015-016-024-162300-
NORTHWEST ILLINOIS

CITY           SKY/WX    TMP DP  RH WIND       PRES   REMARKS
MOLINE         LGT RAIN  36  35  96 E8        29.96R FOG     WCI  30
STERLING*      LGT RAIN  35  34  96 E14       29.98F FOG     WCI  26
SAVANNA*       LGT RAIN  35  34  96 E8        29.98F WCI  28
$$

ILZ003-004-008-010-011-017-018-162300-
NORTH CENTRAL ILLINOIS

CITY           SKY/WX    TMP DP  RH WIND       PRES   REMARKS
ROCKFORD       LGT RAIN  36  33  89 E8        30.05F FOG     WCI  30
FREEPORT*      LGT RAIN  33  32  97 E10       30.02F WCI  25
ROCHELLE*      LGT RAIN  34  34 100 E6        30.03F WCI  29
DE KALB*       RAIN      35  34  99 E8        30.04S WCI  28
$$

ILZ005-006-012>014-019>023-162300-
NORTHEAST ILLINOIS

CITY           SKY/WX    TMP DP  RH WIND       PRES   REMARKS
CHICAGO-OHARE  LGT RAIN  36  35  96 E8        30.05F FOG     WCI  30
CHICAGO-MIDWAY LGT RAIN  36  35  96 E7        30.07F FOG     WCI  30
AURORA         HVY RAIN  37  35  92 E5        30.05S FOG     WCI  33
LANSING*       LGT RAIN  36  36 100 E6        30.08S VSB 3/4 WCI  31
JOLIET*        RAIN      37  37  99 E6        30.05F VSB 3/4 WCI  33
WAUKEGAN       LGT RAIN  36  35  96 E8        30.08S VSB 3/4 WCI  30
DUPAGE AIRPORT RAIN      36  33  89 E8        30.04F FOG     WCI  30
KANKAKEE*      FOG       38  37  97 E9        30.05F VSB<1/4 WCI  31
WHEELING       LGT RAIN  35  34  96 E3        30.08F FOG
MORRIS*        LGT RAIN  36  35  97 E7        30.03F VSB 1/4 WCI  30
ROMEOVILLE*    FOG       36  36 100 SE7       30.05F VSB 3/4 WCI  30
NORTHERLY ISL    N/A     33  32  96 NE3         N/A
$$

LMZ740>746-162300-
SOUTHERN LAKE MICHIGAN

STATION/POSITION SKY/WX   TEMP    WIND        PRES    VSBY  WAVE
                          AIR SEA DIR/SP/G                  HT/PER
                          (F)     (DEG/KT/KT) (MB)    (MI)  (FT/S)
HARRISON CRIB              35     100/ 10/ 10   N/A
BURNHAM HARBOR             33      60/  3/  6   N/A
CALUMET HARBOR             33      70/  5/  7 1017.9F
BURNS HARBOR               38     110/  9/ 15 1019.3S
MICHIGAN CITY              36     100/  8/ 10   N/A
$$

ILZ025>027-034>036-040-047-049-050-058-095>099-162300-
WEST-CENTRAL ILLINOIS

CITY           SKY/WX    TMP DP  RH WIND       PRES   REMARKS
QUINCY         LGT RAIN  42  42 100 E7        29.91S VSB 1/2
GALESBURG*     RAIN      37  37 100 SE5       29.94R VSB 1   WCI  33
MACOMB*        CLOUDY    37  37 100 SW7       29.98R VSB 1/2 WCI  32
JACKSONVILLE*  FOG       44  44 100 SE5       29.93R VSB 3/4
PITTSFIELD*    FOG       47  47 100 E6        29.92F VSB<1/4
$$

ILZ028>032-037-038-041>044-048-051>054-059>061-162300-
CENTRAL ILLINOIS

CITY           SKY/WX    TMP DP  RH WIND       PRES   REMARKS
PONTIAC        LGT RAIN  37  37 100 E10       30.02F VSB 1/4 WCI  30
BLOOMINGTON    LGT RAIN  41  41 100 SE13      29.99F VSB 1/8
DECATUR        CLOUDY    48  48 100 SE10      29.99F FOG
PEORIA         FOG       41  41 100 E10       29.96F VSB 3/4
LACON*         FOG       35  35 100 E7        29.98F VSB 3/4 WCI  29
LINCOLN*       LGT RAIN  43  43 100 SE8       29.96F VSB 3/4
SPRINGFIELD    CLOUDY    49  48  97 SE14      29.93F FOG
TAYLORVILLE    LGT RAIN  48  48  99 SE9G17    29.97F
$$

ILZ033-039-045-046-055>057-062-063-162300-
EAST-CENTRAL ILLINOIS

CITY           SKY/WX    TMP DP  RH WIND       PRES   REMARKS
CHAMPAIGN      FOG       44  43  96 SE8       30.02S VSB 1/8
RANTOUL*       FOG       42  42  99 SE7       30.02F VSB<1/4
MATTOON        LGT RAIN  49  49 100 SE10      30.01S FOG
PARIS*         CLOUDY    48  48 100 SE9       30.05F FOG
$$

ILZ079-100>102-162300-
SOUTHWEST ILLINOIS

CITY           SKY/WX    TMP DP  RH WIND       PRES   REMARKS
ALTON          RAIN      50  50 100 SE14      29.93F VSB 1
BELLEVILLE     CLOUDY    53  53 100 SE7       29.95S FOG
CAHOKIA*       LGT RAIN  54  51  90 S10       29.94F FOG
SPARTA*        LGT RAIN  53  53  99 SE6       29.98S
$$

ILZ064>066-069>071-074>076-080>082-084>086-088>090-092>094-162300-
SOUTH-CENTRAL ILLINOIS

CITY           SKY/WX    TMP DP  RH WIND       PRES   REMARKS
CARBONDALE     MOCLDY    59  57  93 S9        30.00S
CAIRO*         CLOUDY    61  57  87 S9        30.01S
EFFINGHAM*     CLOUDY    51  51 100 E9        30.02F FOG
MARION         PTCLDY    61  59  94 S12       30.01F
MT. VERNON     CLOUDY    54  52  93 SE7       30.01F
CENTRALIA*     CLOUDY    55  54  97 SE8       29.99F FOG
SALEM*         CLOUDY    54  52  94 SE6       30.00F FOG
METROPOLIS*    CLOUDY    61  57  86 CALM      30.03S
$$

ILZ067-068-072-073-078-083-087-091-162300-
SOUTHEAST ILLINOIS

CITY           SKY/WX    TMP DP  RH WIND       PRES   REMARKS
LAWRENCEVILLE  LGT RAIN  53  53 100 SE7       30.06S FOG
FLORA*         CLOUDY    54  53  96 SE8       30.02F FOG
FAIRFIELD*     CLOUDY    54  54  99 CALM      30.01F
HARRISBURG*    CLOUDY    55  54  97 E7        30.02F
ROBINSON*      CLOUDY    51  51  99 SE10      30.06F FOG
CARMI*         CLOUDY    54  53  99 SE9       30.03F FOG
$$

ABBREVIATIONS USED IN REMARKS
   TC - TEMPERATURE IN CELSIUS
  WCI - WIND CHILL INDEX
   HX - HEAT INDEX
  VSB - VISIBILITY
$$





USA.gov is the U.S. government's official web portal to all federal, state and local government web resources and services.